TimeEDT,TemperatureF,Dew PointF,Humidity,Sea Level PressureIn,VisibilityMPH,Wind Direction,Wind SpeedMPH,Gust SpeedMPH,PrecipitationIn,Events,Conditions,WindDirDegrees,DateUTC
12:53 AM,53.1,51.1,93,30.18,9.0,Calm,Calm,-,N/A,,Clear,0,2013-05-26 04:53:00
1:53 AM,54.0,51.1,90,30.17,10.0,Calm,Calm,-,N/A,,Clear,0,2013-05-26 05:53:00
2:53 AM,51.1,48.9,92,30.18,10.0,Calm,Calm,-,N/A,,Clear,0,2013-05-26 06:53:00
3:53 AM,51.1,50.0,96,30.17,7.0,Calm,Calm,-,N/A,,Clear,0,2013-05-26 07:53:00
4:53 AM,52.0,50.0,93,30.18,10.0,Calm,Calm,-,N/A,,Clear,0,2013-05-26 08:53:00
5:53 AM,50.0,50.0,100,30.19,8.0,Calm,Calm,-,N/A,,Clear,0,2013-05-26 09:53:00
6:53 AM,51.1,50.0,96,30.22,7.0,Calm,Calm,-,N/A,,Clear,0,2013-05-26 10:53:00
7:53 AM,59.0,55.0,87,30.24,10.0,Calm,Calm,-,N/A,,Clear,0,2013-05-26 11:53:00
8:53 AM,66.0,55.0,68,30.27,10.0,NE,5.8,-,N/A,,Clear,40,2013-05-26 12:53:00
9:53 AM,70.0,53.1,55,30.27,10.0,North,5.8,-,N/A,,Clear,10,2013-05-26 13:53:00
10:53 AM,73.9,54.0,50,30.26,10.0,NNE,5.8,-,N/A,,Clear,30,2013-05-26 14:53:00
11:53 AM,75.9,55.0,48,30.24,10.0,Variable,3.5,-,N/A,,Clear,0,2013-05-26 15:53:00
12:53 PM,80.1,52.0,38,30.22,10.0,SSW,9.2,-,N/A,,Clear,200,2013-05-26 16:53:00
1:53 PM,84.0,48.9,29,30.20,10.0,NNW,12.7,17.3,N/A,,Clear,340,2013-05-26 17:53:00
2:53 PM,84.0,48.9,29,30.19,10.0,North,6.9,-,N/A,,Clear,10,2013-05-26 18:53:00
3:53 PM,84.9,50.0,30,30.17,10.0,NW,5.8,-,N/A,,Clear,320,2013-05-26 19:53:00
4:53 PM,84.9,48.9,29,30.16,10.0,NNW,10.4,17.3,N/A,,Clear,340,2013-05-26 20:53:00
5:53 PM,84.0,48.9,29,30.16,10.0,North,9.2,-,N/A,,Clear,10,2013-05-26 21:53:00
6:53 PM,82.0,46.9,29,30.15,10.0,North,8.1,-,N/A,,Clear,10,2013-05-26 22:53:00
7:53 PM,78.1,48.9,36,30.15,10.0,North,5.8,-,N/A,,Clear,10,2013-05-26 23:53:00
8:53 PM,72.0,52.0,49,30.17,10.0,Calm,Calm,-,N/A,,Clear,0,2013-05-27 00:53:00
9:53 PM,64.0,54.0,70,30.18,10.0,Calm,Calm,-,N/A,,Clear,0,2013-05-27 01:53:00
10:53 PM,60.1,53.1,78,30.20,10.0,Calm,Calm,-,N/A,,Clear,0,2013-05-27 02:53:00
11:53 PM,57.9,53.1,84,30.21,10.0,Calm,Calm,-,N/A,,Clear,0,2013-05-27 03:53:00